,,PA_Meas_PMT16A,,PR_Meas_QMR101_102,,RH_Meas_QMH101,,SR_Meas_QMS101,,TA_Meas_QMH101,,GenWind,,GenWind,
time,status,PA,status,PR,status,RH,status,SR,status,TA,status,DirAvg,status,SpdAvg,
2013-10-20, 00:00:04,VALID,918.944,VALID,0,VALID,96.2228,VALID,0,VALID,19.1778,VALID,136,VALID,0,
2013-10-20, 00:01:04,VALID,918.937,VALID,0.2,VALID,96.2456,VALID,0,VALID,19.1987,VALID,136,VALID,0,
2013-10-20, 00:02:04,VALID,918.977,VALID,0,VALID,96.2761,VALID,0,VALID,19.1778,VALID,136,VALID,0,
2013-10-20, 00:03:04,VALID,918.992,VALID,0,VALID,96.3066,VALID,0,VALID,19.1583,VALID,136,VALID,0,
2013-10-20, 00:04:04,VALID,919.01,VALID,0.2,VALID,96.3295,VALID,0,VALID,19.1778,VALID,136,VALID,0,
2013-10-20, 00:05:04,VALID,919.04,VALID,0,VALID,96.3524,VALID,0,VALID,19.1778,VALID,136,VALID,0,
2013-10-20, 00:06:04,VALID,919.044,VALID,0,VALID,96.3829,VALID,0,VALID,19.1973,VALID,136,VALID,0,
2013-10-20, 00:07:04,VALID,919.004,VALID,0,VALID,96.421,VALID,0,VALID,19.1973,VALID,136,VALID,0,
2013-10-20, 00:08:04,VALID,919.013,VALID,0,VALID,96.4286,VALID,0,VALID,19.1778,VALID,136,VALID,0,
2013-10-20, 00:09:04,VALID,919.006,VALID,0,VALID,96.4286,VALID,0,VALID,19.1388,VALID,136,VALID,0,
2013-10-20, 00:10:04,VALID,919.006,VALID,0,VALID,96.4133,VALID,0,VALID,19.1388,VALID,136,VALID,0,
2013-10-20, 00:11:04,VALID,918.998,VALID,0,VALID,96.4515,VALID,0,VALID,19.1193,VALID,136,VALID,0,
2013-10-20, 00:12:04,VALID,919.016,VALID,0.2,VALID,96.4743,VALID,0,VALID,19.1388,VALID,136,VALID,0,
2013-10-20, 00:13:04,VALID,918.979,VALID,0,VALID,96.5048,VALID,0,VALID,19.0983,VALID,136,VALID,0,
2013-10-20, 00:14:04,VALID,918.972,VALID,0,VALID,96.4972,VALID,0,VALID,19.0998,VALID,136,VALID,0,
2013-10-20, 00:15:04,VALID,918.946,VALID,0,VALID,96.5201,VALID,0,VALID,19.0998,VALID,136,VALID,0,
2013-10-20, 00:16:04,VALID,918.901,VALID,0,VALID,96.5201,VALID,0,VALID,19.0803,VALID,136,VALID,0,
2013-10-20, 00:17:04,VALID,918.887,VALID,0,VALID,96.5048,VALID,0,VALID,19.0803,VALID,136,VALID,0,
2013-10-20, 00:18:04,VALID,918.909,VALID,0,VALID,96.5506,VALID,0,VALID,19.0593,VALID,134,VALID,0,
2013-10-20, 00:19:04,VALID,918.888,VALID,0,VALID,96.5582,VALID,0,VALID,19.0413,VALID,134,VALID,0,
2013-10-20, 00:20:04,VALID,918.86,VALID,0,VALID,96.5734,VALID,0,VALID,19.0398,VALID,135,VALID,0,
2013-10-20, 00:21:04,VALID,918.857,VALID,0,VALID,96.5734,VALID,0,VALID,19.0608,VALID,135,VALID,0,
2013-10-20, 00:22:04,VALID,918.864,VALID,0,VALID,96.5963,VALID,0,VALID,19.0803,VALID,135,VALID,0,
2013-10-20, 00:23:04,VALID,918.816,VALID,0,VALID,96.6115,VALID,0,VALID,19.1193,VALID,135,VALID,0,
2013-10-20, 00:24:04,VALID,918.804,VALID,0,VALID,96.6115,VALID,0,VALID,19.1193,VALID,135,VALID,0,
2013-10-20, 00:25:04,VALID,918.757,VALID,0,VALID,96.6268,VALID,0,VALID,19.0803,VALID,135,VALID,0,
2013-10-20, 00:26:04,VALID,918.693,VALID,0,VALID,96.6344,VALID,0,VALID,19.0998,VALID,135,VALID,0,
2013-10-20, 00:27:04,VALID,918.696,VALID,0,VALID,96.6497,VALID,0,VALID,19.1193,VALID,135,VALID,0,
2013-10-20, 00:28:04,VALID,918.671,VALID,0,VALID,96.6573,VALID,0,VALID,19.1193,VALID,135,VALID,0,
2013-10-20, 00:29:04,VALID,918.618,VALID,0,VALID,96.6649,VALID,0,VALID,19.1388,VALID,137,VALID,0,
2013-10-20, 00:30:04,VALID,918.627,VALID,0,VALID,96.6725,VALID,0,VALID,19.1388,VALID,163,VALID,0,
2013-10-20, 00:31:04,VALID,918.619,VALID,0,VALID,96.6725,VALID,0,VALID,19.1193,VALID,143,VALID,0,
2013-10-20, 00:32:04,VALID,918.588,VALID,0,VALID,96.6878,VALID,0,VALID,19.1388,VALID,178,VALID,0,
2013-10-20, 00:33:04,VALID,918.55,VALID,0,VALID,96.6878,VALID,0,VALID,19.1388,VALID,163,VALID,0,
2013-10-20, 00:34:04,VALID,918.588,VALID,0,VALID,96.6954,VALID,0,VALID,19.1388,VALID,170,VALID,0,
2013-10-20, 00:35:04,VALID,918.577,VALID,0,VALID,96.703,VALID,0,VALID,19.1388,VALID,161,VALID,0,
2013-10-20, 00:36:04,VALID,918.559,VALID,0,VALID,96.7183,VALID,0,VALID,19.1583,VALID,140,VALID,0,
2013-10-20, 00:37:04,VALID,918.579,VALID,0,VALID,96.7335,VALID,0,VALID,19.1583,VALID,139,VALID,0,
2013-10-20, 00:38:04,VALID,918.54,VALID,0,VALID,96.7259,VALID,0,VALID,19.1388,VALID,180,VALID,0,
2013-10-20, 00:39:04,VALID,918.527,VALID,0,VALID,96.7183,VALID,0,VALID,19.1388,VALID,151,VALID,0,
2013-10-20, 00:40:04,VALID,918.492,VALID,0,VALID,96.7411,VALID,0,VALID,19.1778,VALID,130,VALID,0,
2013-10-20, 00:41:04,VALID,918.468,VALID,0,VALID,96.7716,VALID,0,VALID,19.1583,VALID,146,VALID,0,
2013-10-20, 00:42:04,VALID,918.429,VALID,0,VALID,96.7716,VALID,0,VALID,19.1583,VALID,135,VALID,0,
2013-10-20, 00:43:04,VALID,918.416,VALID,0,VALID,96.7716,VALID,0,VALID,19.1388,VALID,133,VALID,0,
2013-10-20, 00:44:04,VALID,918.423,VALID,0,VALID,96.764,VALID,0,VALID,19.1193,VALID,142,VALID,0,
2013-10-20, 00:45:04,VALID,918.403,VALID,0,VALID,96.764,VALID,0,VALID,19.0998,VALID,127,VALID,0,
2013-10-20, 00:46:04,VALID,918.362,VALID,0,VALID,96.764,VALID,0,VALID,19.0803,VALID,122,VALID,0,
2013-10-20, 00:47:04,VALID,918.333,VALID,0,VALID,96.7793,VALID,0,VALID,19.0593,VALID,148,VALID,0,
2013-10-20, 00:48:04,VALID,918.329,VALID,0,VALID,96.7869,VALID,0,VALID,19.0803,VALID,161,VALID,0,
2013-10-20, 00:49:04,VALID,918.266,VALID,0,VALID,96.8021,VALID,0,VALID,19.0998,VALID,188,VALID,0,
2013-10-20, 00:50:04,VALID,918.251,VALID,0,VALID,96.8021,VALID,0,VALID,19.0788,VALID,164,VALID,0,
2013-10-20, 00:51:04,VALID,918.214,VALID,0,VALID,96.7945,VALID,0.107441,VALID,19.1193,VALID,147,VALID,0,
2013-10-20, 00:52:04,VALID,918.222,VALID,0,VALID,96.7869,VALID,0.107441,VALID,19.1178,VALID,158,VALID,0,
2013-10-20, 00:53:04,VALID,918.144,VALID,0,VALID,96.825,VALID,0.107441,VALID,19.1178,VALID,174,VALID,0,
2013-10-20, 00:54:04,VALID,918.141,VALID,0,VALID,96.7945,VALID,0,VALID,19.0983,VALID,179,VALID,0,
2013-10-20, 00:55:04,VALID,918.116,VALID,0,VALID,96.825,VALID,0,VALID,19.1178,VALID,174,VALID,0,
2013-10-20, 00:56:04,VALID,918.114,VALID,0.2,VALID,96.825,VALID,0.107441,VALID,19.1178,VALID,146,VALID,0,
2013-10-20, 00:57:04,VALID,918.079,VALID,0,VALID,96.825,VALID,0.107441,VALID,19.0983,VALID,175,VALID,0,
2013-10-20, 00:58:04,VALID,918.063,VALID,0,VALID,96.8174,VALID,0,VALID,19.1178,VALID,170,VALID,0,
2013-10-20, 00:59:04,VALID,918.019,VALID,0,VALID,96.8479,VALID,0.107441,VALID,19.0969,VALID,178,VALID,0,
2013-10-20, 01:00:04,VALID,918,VALID,0.2,VALID,96.8403,VALID,0,VALID,19.0969,VALID,167,VALID,0,
2013-10-20, 01:01:04,VALID,917.944,VALID,0,VALID,96.8403,VALID,0,VALID,19.0983,VALID,162,VALID,0,
2013-10-20, 01:02:04,VALID,917.913,VALID,0,VALID,96.8555,VALID,0.107441,VALID,19.1178,VALID,185,VALID,0,
2013-10-20, 01:03:04,VALID,917.848,VALID,0.2,VALID,96.8479,VALID,0,VALID,19.1388,VALID,181,VALID,0,
2013-10-20, 01:04:04,VALID,917.814,VALID,0,VALID,96.8403,VALID,0,VALID,19.0788,VALID,144,VALID,0,
2013-10-20, 01:05:04,VALID,917.765,VALID,0,VALID,96.8403,VALID,0,VALID,19.0803,VALID,144,VALID,0,
2013-10-20, 01:06:04,VALID,917.738,VALID,0,VALID,96.8479,VALID,0,VALID,19.0803,VALID,145,VALID,0,
2013-10-20, 01:07:04,VALID,917.715,VALID,0,VALID,96.8555,VALID,0,VALID,19.0189,VALID,145,VALID,0,
2013-10-20, 01:08:04,VALID,917.717,VALID,0,VALID,96.8555,VALID,0,VALID,19.0398,VALID,145,VALID,0,
2013-10-20, 01:09:04,VALID,917.736,VALID,0,VALID,96.8403,VALID,0,VALID,19.0622,VALID,138,VALID,0,
2013-10-20, 01:10:04,VALID,917.708,VALID,0,VALID,96.8479,VALID,0,VALID,19.0413,VALID,130,VALID,0,
2013-10-20, 01:11:04,VALID,917.702,VALID,0,VALID,96.8555,VALID,0,VALID,19.0427,VALID,124,VALID,0,
2013-10-20, 01:12:04,VALID,917.739,VALID,0,VALID,96.8555,VALID,0,VALID,19.0023,VALID,111,VALID,0,
2013-10-20, 01:13:04,VALID,917.706,VALID,0,VALID,96.8403,VALID,0,VALID,19.0232,VALID,126,VALID,0,
2013-10-20, 01:14:04,VALID,917.685,VALID,0,VALID,96.8555,VALID,0,VALID,19.0037,VALID,138,VALID,0,
2013-10-20, 01:15:04,VALID,917.677,VALID,0.2,VALID,96.8479,VALID,0,VALID,19.0023,VALID,140,VALID,0,
2013-10-20, 01:16:04,VALID,917.693,VALID,0,VALID,96.8555,VALID,0,VALID,18.9828,VALID,127,VALID,0,
2013-10-20, 01:17:04,VALID,917.641,VALID,0,VALID,96.8631,VALID,0,VALID,18.9828,VALID,133,VALID,0,
2013-10-20, 01:18:04,VALID,917.671,VALID,0,VALID,96.8631,VALID,0,VALID,19.0037,VALID,136,VALID,0,
2013-10-20, 01:19:04,VALID,917.645,VALID,0,VALID,96.8707,VALID,0,VALID,19.0037,VALID,136,VALID,0,
2013-10-20, 01:20:04,VALID,917.643,VALID,0,VALID,96.8403,VALID,0,VALID,18.9814,VALID,123,VALID,0,
2013-10-20, 01:21:04,VALID,917.611,VALID,0,VALID,96.8631,VALID,0,VALID,19.0023,VALID,109,VALID,0,
2013-10-20, 01:22:04,VALID,917.613,VALID,0,VALID,96.8479,VALID,0,VALID,19.0023,VALID,108,VALID,0,
2013-10-20, 01:23:04,VALID,917.587,VALID,0,VALID,96.8403,VALID,0,VALID,19.0023,VALID,109,VALID,0,
2013-10-20, 01:24:04,VALID,917.541,VALID,0,VALID,96.8631,VALID,0,VALID,18.9619,VALID,109,VALID,0,
2013-10-20, 01:25:04,VALID,917.503,VALID,0,VALID,96.8555,VALID,0.107441,VALID,18.9619,VALID,109,VALID,0,
2013-10-20, 01:26:04,VALID,917.503,VALID,0,VALID,96.8631,VALID,0,VALID,18.9424,VALID,109,VALID,0,
2013-10-20, 01:27:04,VALID,917.413,VALID,0,VALID,96.8784,VALID,0,VALID,18.9214,VALID,111,VALID,0,
2013-10-20, 01:28:04,VALID,917.424,VALID,0,VALID,96.8631,VALID,0,VALID,18.9424,VALID,136,VALID,0,
2013-10-20, 01:29:04,VALID,917.371,VALID,0,VALID,96.8555,VALID,0,VALID,18.9828,VALID,137,VALID,0,
2013-10-20, 01:30:04,VALID,917.355,VALID,0,VALID,96.8784,VALID,0,VALID,18.9633,VALID,137,VALID,0,
2013-10-20, 01:31:04,VALID,917.334,VALID,0,VALID,96.8707,VALID,0,VALID,18.9438,VALID,137,VALID,0,
2013-10-20, 01:32:04,VALID,917.351,VALID,0,VALID,96.8707,VALID,0,VALID,18.8824,VALID,136,VALID,0,
2013-10-20, 01:33:04,VALID,917.355,VALID,0,VALID,96.8784,VALID,0,VALID,18.8615,VALID,136,VALID,0,
2013-10-20, 01:34:04,VALID,917.378,VALID,0,VALID,96.886,VALID,0,VALID,18.9034,VALID,120,VALID,0,
2013-10-20, 01:35:04,VALID,917.388,VALID,0,VALID,96.8784,VALID,0,VALID,18.9048,VALID,120,VALID,0,
2013-10-20, 01:36:04,VALID,917.373,VALID,0,VALID,96.8707,VALID,0,VALID,18.8853,VALID,122,VALID,0,
2013-10-20, 01:37:04,VALID,917.415,VALID,0,VALID,96.8936,VALID,0,VALID,18.9257,VALID,133,VALID,0,
2013-10-20, 01:38:04,VALID,917.405,VALID,0,VALID,96.9012,VALID,0,VALID,18.9257,VALID,133,VALID,0,
2013-10-20, 01:39:04,VALID,917.414,VALID,0,VALID,96.886,VALID,0,VALID,18.9257,VALID,128,VALID,0,
2013-10-20, 01:40:04,VALID,917.407,VALID,0,VALID,96.9089,VALID,0,VALID,18.9048,VALID,123,VALID,0,
2013-10-20, 01:41:04,VALID,917.408,VALID,0,VALID,96.886,VALID,0,VALID,18.9048,VALID,121,VALID,0,
2013-10-20, 01:42:04,VALID,917.333,VALID,0,VALID,96.886,VALID,0,VALID,18.9048,VALID,112,VALID,0,
2013-10-20, 01:43:04,VALID,917.327,VALID,0,VALID,96.8936,VALID,0,VALID,18.9048,VALID,110,VALID,0,
2013-10-20, 01:44:04,VALID,917.345,VALID,0,VALID,96.886,VALID,0,VALID,18.9048,VALID,110,VALID,0,
2013-10-20, 01:45:04,VALID,917.314,VALID,0,VALID,96.886,VALID,0,VALID,18.9048,VALID,110,VALID,0,
2013-10-20, 01:46:04,VALID,917.321,VALID,0,VALID,96.9012,VALID,0,VALID,18.9048,VALID,110,VALID,0,
2013-10-20, 01:47:04,VALID,917.291,VALID,0,VALID,96.8936,VALID,0,VALID,18.8853,VALID,110,VALID,0,
2013-10-20, 01:48:04,VALID,917.296,VALID,0,VALID,96.886,VALID,0,VALID,18.8853,VALID,110,VALID,0,
2013-10-20, 01:49:04,VALID,917.262,VALID,0,VALID,96.8936,VALID,0,VALID,18.8463,VALID,109,VALID,0,
2013-10-20, 01:50:04,VALID,917.25,VALID,0,VALID,96.8784,VALID,0,VALID,18.8658,VALID,110,VALID,0,
2013-10-20, 01:51:04,VALID,917.246,VALID,0,VALID,96.8784,VALID,0,VALID,18.8449,VALID,110,VALID,0,
2013-10-20, 01:52:04,VALID,917.228,VALID,0,VALID,96.886,VALID,0.107441,VALID,18.8853,VALID,110,VALID,0,
2013-10-20, 01:53:04,VALID,917.249,VALID,0,VALID,96.9012,VALID,0,VALID,18.8644,VALID,110,VALID,0,
2013-10-20, 01:54:04,VALID,917.241,VALID,0,VALID,96.9012,VALID,0,VALID,18.8853,VALID,110,VALID,0,
2013-10-20, 01:55:04,VALID,917.269,VALID,0,VALID,96.8784,VALID,0,VALID,18.8644,VALID,110,VALID,0,
2013-10-20, 01:56:04,VALID,917.308,VALID,0,VALID,96.9012,VALID,0,VALID,18.8853,VALID,120,VALID,0,
2013-10-20, 01:57:04,VALID,917.281,VALID,0,VALID,96.8784,VALID,0,VALID,18.8449,VALID,121,VALID,0,
2013-10-20, 01:58:04,VALID,917.323,VALID,0,VALID,96.8784,VALID,0,VALID,18.8449,VALID,120,VALID,0,
2013-10-20, 01:59:04,VALID,917.332,VALID,0,VALID,96.886,VALID,0.107441,VALID,18.8449,VALID,115,VALID,0,
2013-10-20, 02:00:04,VALID,917.332,VALID,0,VALID,96.9089,VALID,0,VALID,18.8644,VALID,121,VALID,0,
2013-10-20, 02:01:04,VALID,917.359,VALID,0,VALID,96.9012,VALID,0,VALID,18.8644,VALID,116,VALID,0,
2013-10-20, 02:02:04,VALID,917.382,VALID,0,VALID,96.9012,VALID,0,VALID,18.8839,VALID,117,VALID,0,
2013-10-20, 02:03:04,VALID,917.36,VALID,0,VALID,96.9012,VALID,0,VALID,18.8839,VALID,118,VALID,0,
2013-10-20, 02:04:04,VALID,917.371,VALID,0,VALID,96.9089,VALID,0,VALID,18.8839,VALID,119,VALID,0,
2013-10-20, 02:05:04,VALID,917.37,VALID,0,VALID,96.9012,VALID,0,VALID,18.9048,VALID,108,VALID,0,
2013-10-20, 02:06:04,VALID,917.364,VALID,0,VALID,96.9241,VALID,0,VALID,18.9243,VALID,109,VALID,0,
2013-10-20, 02:07:04,VALID,917.337,VALID,0,VALID,96.9165,VALID,0,VALID,18.9438,VALID,112,VALID,0,
2013-10-20, 02:08:04,VALID,917.307,VALID,0,VALID,96.9089,VALID,0,VALID,18.9633,VALID,111,VALID,0,
2013-10-20, 02:09:04,VALID,917.309,VALID,0,VALID,96.9165,VALID,0,VALID,18.9647,VALID,112,VALID,0,
2013-10-20, 02:10:04,VALID,917.289,VALID,0,VALID,96.9165,VALID,0,VALID,18.9438,VALID,112,VALID,0,
2013-10-20, 02:11:04,VALID,917.279,VALID,0,VALID,96.886,VALID,0,VALID,18.9857,VALID,104,VALID,0,
2013-10-20, 02:12:04,VALID,917.259,VALID,0,VALID,96.9089,VALID,0,VALID,18.9438,VALID,104,VALID,0,
2013-10-20, 02:13:04,VALID,917.233,VALID,0,VALID,96.9089,VALID,0,VALID,18.9438,VALID,104,VALID,0,
2013-10-20, 02:14:04,VALID,917.249,VALID,0,VALID,96.9165,VALID,0,VALID,18.9438,VALID,104,VALID,0,
2013-10-20, 02:15:04,VALID,917.249,VALID,0,VALID,96.9012,VALID,0,VALID,18.9633,VALID,104,VALID,0,
2013-10-20, 02:16:04,VALID,917.246,VALID,0,VALID,96.9165,VALID,0,VALID,18.9842,VALID,104,VALID,0,
2013-10-20, 02:17:04,VALID,917.222,VALID,0,VALID,96.9089,VALID,0,VALID,18.9438,VALID,104,VALID,0,
2013-10-20, 02:18:04,VALID,917.234,VALID,0,VALID,96.886,VALID,0,VALID,18.9243,VALID,104,VALID,0,
2013-10-20, 02:19:04,VALID,917.19,VALID,0,VALID,96.9089,VALID,0,VALID,18.9243,VALID,104,VALID,0,
2013-10-20, 02:20:04,VALID,917.214,VALID,0,VALID,96.9165,VALID,0,VALID,18.8824,VALID,104,VALID,0,
2013-10-20, 02:21:04,VALID,917.187,VALID,0,VALID,96.9089,VALID,0.107441,VALID,18.8824,VALID,104,VALID,0,
2013-10-20, 02:22:04,VALID,917.202,VALID,0,VALID,96.9165,VALID,0,VALID,18.9647,VALID,104,VALID,0,
2013-10-20, 02:23:04,VALID,917.177,VALID,0,VALID,96.9165,VALID,0.107441,VALID,18.9438,VALID,104,VALID,0,
2013-10-20, 02:24:04,VALID,917.174,VALID,0,VALID,96.9241,VALID,0.107441,VALID,18.9814,VALID,104,VALID,0,
2013-10-20, 02:25:04,VALID,917.161,VALID,0,VALID,96.9241,VALID,0,VALID,18.9619,VALID,109,VALID,0,
2013-10-20, 02:26:04,VALID,917.147,VALID,0,VALID,96.9012,VALID,0.107441,VALID,18.9814,VALID,130,VALID,0,
2013-10-20, 02:27:04,VALID,917.112,VALID,0,VALID,96.9241,VALID,0.107441,VALID,18.9604,VALID,138,VALID,0,
2013-10-20, 02:28:04,VALID,917.096,VALID,0,VALID,96.9089,VALID,0.107441,VALID,18.9619,VALID,139,VALID,0,
2013-10-20, 02:29:04,VALID,917.054,VALID,0,VALID,96.9089,VALID,0.107441,VALID,18.9619,VALID,139,VALID,0,
2013-10-20, 02:30:04,VALID,917.039,VALID,0,VALID,96.9012,VALID,0.107441,VALID,18.9619,VALID,139,VALID,0,
2013-10-20, 02:31:04,VALID,917.042,VALID,0,VALID,96.9089,VALID,0.107441,VALID,18.9409,VALID,138,VALID,0,
2013-10-20, 02:32:04,VALID,917.014,VALID,0,VALID,96.9012,VALID,0.107441,VALID,18.9814,VALID,139,VALID,0,
2013-10-20, 02:33:04,VALID,917.008,VALID,0,VALID,96.9012,VALID,0.107441,VALID,19.0008,VALID,138,VALID,0,
2013-10-20, 02:34:04,VALID,916.991,VALID,0,VALID,96.9165,VALID,0.107441,VALID,18.9828,VALID,137,VALID,0,
2013-10-20, 02:35:04,VALID,916.999,VALID,0,VALID,96.9089,VALID,0,VALID,18.9619,VALID,131,VALID,0,
2013-10-20, 02:36:04,VALID,917.014,VALID,0,VALID,96.9089,VALID,0,VALID,18.9619,VALID,128,VALID,0,
2013-10-20, 02:37:04,VALID,917.015,VALID,0,VALID,96.9012,VALID,0,VALID,18.9842,VALID,129,VALID,0,
2013-10-20, 02:38:04,VALID,917.039,VALID,0,VALID,96.9165,VALID,0,VALID,18.9619,VALID,129,VALID,0,
2013-10-20, 02:39:04,VALID,917.031,VALID,0,VALID,96.9241,VALID,0,VALID,18.9828,VALID,129,VALID,0,
2013-10-20, 02:40:04,VALID,917.063,VALID,0,VALID,96.9165,VALID,0.107441,VALID,18.9828,VALID,129,VALID,0,
2013-10-20, 02:41:04,VALID,917.049,VALID,0,VALID,96.9012,VALID,0,VALID,18.9828,VALID,129,VALID,0,
2013-10-20, 02:42:04,VALID,917.066,VALID,0,VALID,96.9089,VALID,0,VALID,19.0023,VALID,129,VALID,0,
2013-10-20, 02:43:04,VALID,917.069,VALID,0,VALID,96.9241,VALID,0,VALID,19.0008,VALID,134,VALID,0,
2013-10-20, 02:44:04,VALID,917.055,VALID,0,VALID,96.9165,VALID,0,VALID,19.0427,VALID,135,VALID,0,
2013-10-20, 02:45:04,VALID,917.037,VALID,0,VALID,96.9241,VALID,0,VALID,19.0427,VALID,135,VALID,0,
2013-10-20, 02:46:04,VALID,917.054,VALID,0,VALID,96.9241,VALID,0,VALID,19.0008,VALID,135,VALID,0,
2013-10-20, 02:47:04,VALID,917.037,VALID,0,VALID,96.9165,VALID,0,VALID,19.0232,VALID,135,VALID,0,
2013-10-20, 02:48:04,VALID,917.086,VALID,0,VALID,96.9317,VALID,0,VALID,18.9828,VALID,135,VALID,0,
2013-10-20, 02:49:04,VALID,917.08,VALID,0,VALID,96.9317,VALID,0,VALID,18.9633,VALID,135,VALID,0,
2013-10-20, 02:50:04,VALID,917.119,VALID,0,VALID,96.9317,VALID,0,VALID,18.9633,VALID,129,VALID,0,
2013-10-20, 02:51:04,VALID,917.14,VALID,0,VALID,96.9317,VALID,0,VALID,18.9438,VALID,111,VALID,0,
2013-10-20, 02:52:04,VALID,917.131,VALID,0,VALID,96.9241,VALID,0,VALID,18.9633,VALID,119,VALID,0,
2013-10-20, 02:53:04,VALID,917.112,VALID,0,VALID,96.9546,VALID,0,VALID,18.9229,VALID,119,VALID,0,
2013-10-20, 02:54:04,VALID,917.139,VALID,0,VALID,96.9241,VALID,0,VALID,18.9647,VALID,119,VALID,0,
2013-10-20, 02:55:04,VALID,917.134,VALID,0,VALID,96.9394,VALID,0,VALID,18.9828,VALID,119,VALID,0,
2013-10-20, 02:56:04,VALID,917.078,VALID,0,VALID,96.9394,VALID,0,VALID,19.0023,VALID,119,VALID,0,
2013-10-20, 02:57:04,VALID,917.094,VALID,0,VALID,96.9546,VALID,0,VALID,19.0023,VALID,119,VALID,0,
2013-10-20, 02:58:04,VALID,917.078,VALID,0,VALID,96.9165,VALID,0,VALID,19.0023,VALID,119,VALID,0,
2013-10-20, 02:59:04,VALID,917.055,VALID,0,VALID,96.9394,VALID,0,VALID,18.9814,VALID,119,VALID,0,
2013-10-20, 03:00:04,VALID,917.091,VALID,0,VALID,96.947,VALID,0,VALID,19.0218,VALID,119,VALID,0,
2013-10-20, 03:01:04,VALID,917.076,VALID,0,VALID,96.9394,VALID,0,VALID,19.0218,VALID,119,VALID,0,
2013-10-20, 03:02:04,VALID,917.102,VALID,0,VALID,96.9775,VALID,0,VALID,19.0008,VALID,119,VALID,0,
2013-10-20, 03:03:04,VALID,917.123,VALID,0,VALID,96.9698,VALID,0,VALID,19.0023,VALID,119,VALID,0,
2013-10-20, 03:04:04,VALID,917.118,VALID,0,VALID,96.9394,VALID,0,VALID,18.9633,VALID,119,VALID,0,
2013-10-20, 03:05:04,VALID,917.13,VALID,0,VALID,96.9317,VALID,0,VALID,18.9257,VALID,119,VALID,0,
2013-10-20, 03:06:04,VALID,917.138,VALID,0,VALID,96.9394,VALID,0,VALID,18.8658,VALID,119,VALID,0,
2013-10-20, 03:07:04,VALID,917.158,VALID,0,VALID,96.947,VALID,0,VALID,18.8268,VALID,119,VALID,0,
2013-10-20, 03:08:04,VALID,917.18,VALID,0,VALID,96.9317,VALID,0,VALID,18.8268,VALID,119,VALID,0,
2013-10-20, 03:09:04,VALID,917.133,VALID,0,VALID,96.947,VALID,0,VALID,18.8073,VALID,119,VALID,0,
2013-10-20, 03:10:04,VALID,917.104,VALID,0,VALID,96.9394,VALID,0,VALID,18.8073,VALID,119,VALID,0,
2013-10-20, 03:11:04,VALID,917.103,VALID,0,VALID,96.9394,VALID,0,VALID,18.8073,VALID,119,VALID,0,
2013-10-20, 03:12:04,VALID,917.069,VALID,0,VALID,96.9546,VALID,0,VALID,18.8268,VALID,119,VALID,0,
2013-10-20, 03:13:04,VALID,917.054,VALID,0,VALID,96.947,VALID,0,VALID,18.8268,VALID,115,VALID,0,
2013-10-20, 03:14:04,VALID,917.041,VALID,0,VALID,96.947,VALID,0,VALID,18.7864,VALID,106,VALID,0,
2013-10-20, 03:15:04,VALID,917.048,VALID,0,VALID,96.9698,VALID,0,VALID,18.7878,VALID,105,VALID,0,
2013-10-20, 03:16:04,VALID,917.016,VALID,0,VALID,96.9546,VALID,0,VALID,18.8102,VALID,99,VALID,0,
2013-10-20, 03:17:04,VALID,917.058,VALID,0,VALID,96.9546,VALID,0,VALID,18.7084,VALID,62,VALID,0,
2013-10-20, 03:18:04,VALID,917.013,VALID,0,VALID,96.9622,VALID,0,VALID,18.7308,VALID,62,VALID,0,
2013-10-20, 03:19:04,VALID,917.006,VALID,0,VALID,96.9851,VALID,0,VALID,18.7113,VALID,62,VALID,0,
2013-10-20, 03:20:04,VALID,917.018,VALID,0,VALID,96.9622,VALID,0,VALID,18.7113,VALID,62,VALID,0,
2013-10-20, 03:21:04,VALID,917.001,VALID,0,VALID,96.9851,VALID,0,VALID,18.6499,VALID,62,VALID,0,
2013-10-20, 03:22:04,VALID,916.969,VALID,0,VALID,96.9851,VALID,0,VALID,18.6723,VALID,62,VALID,0,
2013-10-20, 03:23:04,VALID,916.955,VALID,0,VALID,97.0003,VALID,0,VALID,18.6513,VALID,62,VALID,0,
2013-10-20, 03:24:04,VALID,916.957,VALID,0,VALID,96.9927,VALID,0,VALID,18.6513,VALID,62,VALID,0,
2013-10-20, 03:25:04,VALID,916.942,VALID,0,VALID,96.9927,VALID,0,VALID,18.6513,VALID,78,VALID,0,
2013-10-20, 03:26:04,VALID,916.932,VALID,0,VALID,97.0003,VALID,0,VALID,18.6304,VALID,86,VALID,0,
2013-10-20, 03:27:04,VALID,916.924,VALID,0,VALID,97.0156,VALID,0,VALID,18.6513,VALID,86,VALID,0,
2013-10-20, 03:28:04,VALID,916.929,VALID,0,VALID,97.008,VALID,0,VALID,18.6528,VALID,97,VALID,0,
2013-10-20, 03:29:04,VALID,916.894,VALID,0,VALID,96.9851,VALID,0,VALID,18.6319,VALID,108,VALID,0,
2013-10-20, 03:30:04,VALID,916.897,VALID,0,VALID,97.0156,VALID,0,VALID,18.6319,VALID,108,VALID,0,
2013-10-20, 03:31:04,VALID,916.854,VALID,0,VALID,97.008,VALID,0,VALID,18.6528,VALID,115,VALID,0,
2013-10-20, 03:32:04,VALID,916.826,VALID,0,VALID,97.0385,VALID,0,VALID,18.6319,VALID,115,VALID,0,
2013-10-20, 03:33:04,VALID,916.837,VALID,0,VALID,97.0232,VALID,0,VALID,18.6513,VALID,115,VALID,0,
2013-10-20, 03:34:04,VALID,916.841,VALID,0,VALID,97.0156,VALID,0,VALID,18.6708,VALID,115,VALID,0,
2013-10-20, 03:35:04,VALID,916.788,VALID,0,VALID,97.0232,VALID,0,VALID,18.6918,VALID,135,VALID,0,
2013-10-20, 03:36:04,VALID,916.801,VALID,0,VALID,97.0461,VALID,0,VALID,18.6903,VALID,135,VALID,0,
2013-10-20, 03:37:04,VALID,916.783,VALID,0,VALID,97.0308,VALID,0,VALID,18.6694,VALID,135,VALID,0,
2013-10-20, 03:38:04,VALID,916.806,VALID,0,VALID,97.0308,VALID,0,VALID,18.6903,VALID,135,VALID,0,
2013-10-20, 03:39:04,VALID,916.823,VALID,0,VALID,97.0308,VALID,0,VALID,18.6903,VALID,135,VALID,0,
2013-10-20, 03:40:04,VALID,916.84,VALID,0,VALID,97.0385,VALID,0,VALID,18.7098,VALID,140,VALID,0,
2013-10-20, 03:41:04,VALID,916.862,VALID,0,VALID,97.0461,VALID,0,VALID,18.7098,VALID,146,VALID,0,
2013-10-20, 03:42:04,VALID,916.889,VALID,0,VALID,97.0308,VALID,0,VALID,18.7098,VALID,146,VALID,0,
2013-10-20, 03:43:04,VALID,916.864,VALID,0,VALID,97.0613,VALID,0,VALID,18.7098,VALID,146,VALID,0,
2013-10-20, 03:44:04,VALID,916.919,VALID,0,VALID,97.0461,VALID,0,VALID,18.7293,VALID,146,VALID,0,
2013-10-20, 03:45:04,VALID,916.924,VALID,0,VALID,97.0537,VALID,0,VALID,18.7488,VALID,147,VALID,0,
2013-10-20, 03:46:04,VALID,916.972,VALID,0,VALID,97.0232,VALID,0,VALID,18.7683,VALID,152,VALID,0,
2013-10-20, 03:47:04,VALID,916.967,VALID,0,VALID,97.0613,VALID,0,VALID,18.7265,VALID,157,VALID,0,
2013-10-20, 03:48:04,VALID,916.978,VALID,0,VALID,97.0385,VALID,0,VALID,18.7683,VALID,159,VALID,0,
2013-10-20, 03:49:04,VALID,917.004,VALID,0,VALID,97.069,VALID,0,VALID,18.8073,VALID,165,VALID,0,
2013-10-20, 03:50:04,VALID,916.999,VALID,0,VALID,97.0461,VALID,0,VALID,18.7864,VALID,166,VALID,0,
2013-10-20, 03:51:04,VALID,916.998,VALID,0,VALID,97.0766,VALID,0,VALID,18.7864,VALID,175,VALID,0,
2013-10-20, 03:52:04,VALID,917.015,VALID,0,VALID,97.069,VALID,0,VALID,18.8073,VALID,180,VALID,0,
2013-10-20, 03:53:04,VALID,917.003,VALID,0,VALID,97.069,VALID,0,VALID,18.8268,VALID,177,VALID,0,
2013-10-20, 03:54:04,VALID,917.024,VALID,0,VALID,97.0537,VALID,0,VALID,18.8073,VALID,175,VALID,0,
2013-10-20, 03:55:04,VALID,916.998,VALID,0,VALID,97.0537,VALID,0,VALID,18.8268,VALID,175,VALID,0,
2013-10-20, 03:56:04,VALID,916.991,VALID,0,VALID,97.0766,VALID,0,VALID,18.8672,VALID,174,VALID,0,
2013-10-20, 03:57:04,VALID,916.969,VALID,0,VALID,97.0613,VALID,0,VALID,18.8853,VALID,174,VALID,0,
2013-10-20, 03:58:04,VALID,916.968,VALID,0,VALID,97.069,VALID,0,VALID,18.8853,VALID,168,VALID,0,